KI0MQ Weather Reports


time (UTC)temp
C
wind
direction
speed
KPH
gust
KPH
rain 1hr
cm
rain 24hr
cm
rain mn
cm
humidity
%
barometer
mb
20260901000008 31 0 0.0 0.0 0.00 0.00 0.00 71 1012.3
20260831235503 31 0 0.0 0.0 0.00 0.00 0.00 70 1012.3
20260831234004 31 0 0.0 0.0 0.00 0.00 0.00 74 1012.4
20260831233503 31 164 0.0 3.2 0.00 0.00 0.00 71 1012.3
20260831233008 31 164 0.0 3.2 0.00 0.00 0.00 71 1012.3
20260831232503 31 0 0.0 0.0 0.00 0.00 0.00 72 1012.3
20260831232003 31 0 0.0 0.0 0.00 0.00 0.00 72 1012.4
20260831231508 31 0 0.0 0.0 0.00 0.00 0.00 73 1012.3
20260831230504 31 0 0.0 0.0 0.00 0.00 0.00 74 1012.2
20260831230008 31 0 0.0 0.0 0.00 0.00 0.00 74 1012.3
20260831225503 31 0 0.0 0.0 0.00 0.00 0.00 73 1012.4
20260831225003 31 0 0.0 0.0 0.00 0.00 0.00 73 1012.4
20260831224508 31 181 0.0 1.6 0.00 0.00 0.00 72 1012.2
20260831224003 31 174 0.0 3.2 0.00 0.00 0.00 72 1012.3
20260831223504 31 169 0.0 3.2 0.00 0.00 0.00 71 1012.3
20260831223009 31 163 0.0 3.2 0.00 0.00 0.00 70 1012.3
20260831222003 31 177 1.6 3.2 0.00 0.00 0.00 70 1012.4
20260831220503 31 170 0.0 3.2 0.00 0.00 0.00 71 1012.4
20260831220009 31 168 0.0 3.2 0.00 0.00 0.00 72 1012.5
20260831215503 31 162 0.0 1.6 0.00 0.00 0.00 73 1012.4
20260831215003 31 162 0.0 3.2 0.00 0.00 0.00 73 1012.4
20260831214508 31 164 0.0 3.2 0.00 0.00 0.00 72 1012.4
20260831213503 31 182 3.2 6.4 0.00 0.00 0.00 70 1012.5
20260831213008 31 184 1.6 6.4 0.00 0.00 0.00 70 1012.6
20260831212503 32 189 1.6 4.8 0.00 0.00 0.00 69 1012.6
20260831212004 32 198 0.0 4.8 0.00 0.00 0.00 69 1012.6
20260831211508 32 214 0.0 3.2 0.00 0.00 0.00 71 1012.6
20260831211004 32 201 1.6 3.2 0.00 0.00 0.00 69 1012.5
20260831210008 32 214 1.6 3.2 0.00 0.00 0.00 70 1012.6
20260831205504 32 187 1.6 6.4 0.00 0.00 0.00 70 1012.7
20260831205003 32 187 1.6 6.4 0.00 0.00 0.00 70 1012.7
20260831204003 32 210 1.6 6.4 0.00 0.00 0.00 68 1012.7
20260831203503 32 205 1.6 6.4 0.00 0.00 0.00 69 1012.8
20260831203008 32 218 1.6 3.2 0.00 0.00 0.00 68 1012.9
20260831202004 32 190 1.6 4.8 0.00 0.00 0.00 68 1013.0
20260831201508 32 202 1.6 4.8 0.00 0.00 0.00 68 1012.9
20260831201003 32 188 1.6 4.8 0.00 0.00 0.00 67 1012.9
20260831200503 32 184 1.6 6.4 0.00 0.00 0.00 67 1012.9
20260831195004 33 211 0.0 4.8 0.00 0.00 0.00 64 1012.9
20260831194003 33 183 1.6 4.8 0.00 0.00 0.00 64 1013.0
20260831193503 33 200 1.6 4.8 0.00 0.00 0.00 68 1013.1
20260831193008 32 292 0.0 4.8 0.00 0.00 0.00 67 1013.0
20260831192003 32 185 1.6 6.4 0.00 0.00 0.00 66 1012.9
20260831191003 32 235 0.0 3.2 0.00 0.00 0.00 67 1012.9
20260831190503 32 190 1.6 4.8 0.00 0.00 0.00 66 1012.9
20260831190008 32 206 1.6 4.8 0.00 0.00 0.00 64 1012.9
20260831185004 32 240 1.6 6.4 0.00 0.00 0.00 65 1013.0
20260831184508 32 288 1.6 8.0 0.00 0.00 0.00 65 1013.0
20260831184003 32 322 1.6 8.0 0.00 0.00 0.00 66 1013.0
20260831183504 32 150 0.0 3.2 0.00 0.00 0.00 69 1013.0
20260831183008 31 201 0.0 4.8 0.00 0.00 0.00 66 1013.0
20260831182504 31 195 0.0 4.8 0.00 0.00 0.00 68 1013.0
20260831182004 31 205 0.0 3.2 0.00 0.00 0.00 69 1013.0
20260831181508 31 266 0.0 1.6 0.00 0.00 0.00 68 1013.0
20260831181003 31 181 0.0 3.2 0.00 0.00 0.00 68 1013.0
20260831180009 31 223 1.6 4.8 0.00 0.00 0.00 72 1012.8
20260831175503 30 346 0.0 3.2 0.00 0.00 0.00 71 1012.9
20260831175004 30 349 0.0 3.2 0.00 0.00 0.00 69 1012.9
20260831174508 30 175 0.0 1.6 0.00 0.00 0.00 69 1012.9
20260831174003 30 184 0.0 1.6 0.00 0.00 0.00 70 1012.9
20260831173503 30 190 0.0 1.6 0.00 0.00 0.00 72 1013.0
20260831172504 29 358 0.0 6.4 0.00 0.00 0.00 73 1013.0
20260831171508 28 325 0.0 4.8 0.00 0.00 0.00 74 1012.9
20260831170504 28 302 1.6 6.4 0.00 0.00 0.00 77 1012.8
20260831170008 27 322 1.6 6.4 0.00 0.00 0.00 77 1012.8
20260831165503 27 347 1.6 6.4 0.00 0.00 0.00 77 1012.7
20260831165003 27 1 1.6 8.0 0.00 0.00 0.00 80 1012.7
20260831164508 27 349 1.6 8.0 0.00 0.00 0.00 78 1012.7
20260831164003 27 346 1.6 8.0 0.00 0.00 0.00 79 1012.7
20260831163503 27 343 1.6 8.0 0.00 0.00 0.00 80 1012.7
20260831162503 27 309 0.0 3.2 0.00 0.00 0.00 80 1012.7
20260831162004 26 300 1.6 4.8 0.00 0.00 0.00 81 1012.7
20260831161508 26 288 0.0 4.8 0.00 0.00 0.00 81 1012.7
20260831161003 26 304 0.0 3.2 0.00 0.00 0.00 81 1012.6
20260831160503 26 321 1.6 6.4 0.00 0.00 0.00 82 1012.6
20260831160008 26 338 3.2 6.4 0.00 0.00 0.00 81 1012.3
20260831155504 26 328 3.2 6.4 0.00 0.00 0.00 82 1012.2
20260831155004 26 327 3.2 8.0 0.00 0.00 0.00 82 1012.0
20260831154508 25 326 1.6 8.0 0.00 0.00 0.00 83 1012.1
20260831153503 25 347 1.6 6.4 0.00 0.00 0.00 82 1011.9
20260831153009 25 349 1.6 6.4 0.00 0.00 0.00 82 1012.1
20260831152503 25 325 0.0 4.8 0.00 0.00 0.00 83 1012.2
20260831152003 25 316 1.6 4.8 0.00 0.00 0.00 83 1011.9
20260831151003 25 334 1.6 6.4 0.00 0.00 0.00 84 1012.0
20260831150503 25 323 0.0 6.4 0.00 0.00 0.00 84 1012.0
20260831145504 25 339 0.0 4.8 0.00 0.00 0.00 85 1011.8
20260831145003 25 286 0.0 3.2 0.00 0.00 0.00 86 1011.9
20260831144508 25 0 0.0 0.0 0.00 0.00 0.00 86 1012.2
20260831143503 25 0 0.0 0.0 0.00 0.00 0.00 87 1011.4
20260831143008 25 0 0.0 0.0 0.00 0.00 0.00 88 1011.3
20260831142503 24 0 0.0 0.0 0.00 0.00 0.00 88 1011.4
20260831142003 24 0 0.0 0.0 0.00 0.00 0.00 89 1011.5
20260831141508 24 210 0.0 1.6 0.00 0.00 0.00 89 1011.5
20260831141003 24 210 0.0 1.6 0.00 0.00 0.00 89 1011.8
20260831140503 24 210 0.0 3.2 0.00 0.00 0.00 89 1011.7
20260831140008 24 209 0.0 3.2 0.00 0.00 0.00 90 1011.4
20260831135504 24 172 1.6 4.8 0.00 0.00 0.00 89 1011.3
20260831135003 24 182 1.6 8.0 0.00 0.00 0.00 89 1011.2
20260831134508 24 199 1.6 8.0 0.00 0.00 0.00 89 1010.6
20260831134003 24 326 3.2 14.5 0.00 0.00 0.00 88 1010.6
20260831133503 24 330 3.2 14.5 0.00 0.00 0.00 88 1011.1
20260831133008 24 316 3.2 12.9 0.00 0.00 0.00 88 1011.6
20260831132503 24 319 4.8 12.9 0.00 0.00 0.00 89 1011.9
20260831132003 24 326 4.8 14.5 0.00 0.00 0.00 89 1011.5
20260831131508 24 321 1.6 14.5 0.00 0.00 0.00 90 1011.8
20260831131003 23 303 0.0 12.9 0.00 0.00 0.00 92 1012.2
20260831130007 23 356 0.0 1.6 0.00 0.00 0.00 93 1011.7
20260831125504 23 356 0.0 1.6 0.00 0.00 0.00 94 1011.8
20260831124507 23 6 0.0 1.6 0.00 0.00 0.00 95 1011.6
20260831124004 23 6 0.0 1.6 0.00 0.00 0.00 95 1011.9
20260831123503 23 0 0.0 0.0 0.00 0.00 0.00 96 1011.6
20260831123008 23 0 0.0 0.0 0.00 0.00 0.00 97 1011.4
20260831122503 23 0 0.0 0.0 0.00 0.00 0.00 97 1011.3
20260831122003 22 0 0.0 0.0 0.00 0.00 0.00 97 1011.1
20260831121507 22 0 0.0 0.0 0.00 0.00 0.00 97 1011.1
20260831121003 22 0 0.0 0.0 0.00 0.00 0.00 97 1011.0
20260831120504 22 0 0.0 0.0 0.00 0.00 0.00 97 1010.7
20260831120008 22 0 0.0 0.0 0.00 0.00 0.00 97 1010.6
20260831115504 22 0 0.0 0.0 0.00 0.00 0.00 97 1010.7
20260831114507 22 0 0.0 0.0 0.00 0.00 0.00 97 1010.4
20260831114003 22 0 0.0 0.0 0.00 0.00 0.00 96 1010.3
20260831113504 22 0 0.0 0.0 0.00 0.00 0.00 96 1010.2
20260831113007 22 0 0.0 0.0 0.00 0.00 0.00 96 1010.2
20260831112504 22 0 0.0 0.0 0.00 0.00 0.00 96 1010.1
20260831112003 22 0 0.0 0.0 0.00 0.00 0.00 96 1010.0
20260831111507 22 0 0.0 0.0 0.00 0.00 0.00 96 1010.0
20260831111004 22 0 0.0 0.0 0.00 0.00 0.00 96 1009.9
20260831110008 22 0 0.0 0.0 0.00 0.00 0.00 96 1009.7
20260831105003 22 0 0.0 0.0 0.00 0.00 0.00 96 1009.9
20260831104508 22 0 0.0 0.0 0.00 0.00 0.00 96 1009.8
20260831104003 22 0 0.0 0.0 0.00 0.00 0.00 96 1009.8
20260831103504 22 0 0.0 0.0 0.00 0.00 0.00 96 1009.7
20260831103008 22 0 0.0 0.0 0.00 0.00 0.00 96 1009.7
20260831102503 22 0 0.0 0.0 0.00 0.00 0.00 96 1009.6
20260831102004 22 0 0.0 0.0 0.00 0.00 0.00 96 1009.6
20260831101507 22 0 0.0 0.0 0.00 0.00 0.00 96 1009.6
20260831101003 22 0 0.0 0.0 0.00 0.00 0.00 96 1009.5
20260831100504 22 0 0.0 0.0 0.00 0.00 0.00 96 1009.4
20260831100008 22 0 0.0 0.0 0.00 0.00 0.00 96 1009.6
20260831095504 23 0 0.0 0.0 0.00 0.00 0.00 96 1009.5
20260831095004 23 0 0.0 0.0 0.00 0.00 0.00 96 1009.4
20260831094507 23 0 0.0 0.0 0.00 0.00 0.00 96 1009.3
20260831093504 23 0 0.0 0.0 0.00 0.00 0.00 95 1009.2
20260831093008 23 0 0.0 0.0 0.00 0.00 0.00 95 1009.2
20260831092503 23 0 0.0 0.0 0.00 0.00 0.00 95 1009.1
20260831092003 23 0 0.0 0.0 0.00 0.00 0.00 95 1009.1
20260831091508 23 0 0.0 0.0 0.00 0.00 0.00 95 1009.2
20260831091003 23 0 0.0 0.0 0.00 0.00 0.00 95 1009.0
20260831090503 23 0 0.0 0.0 0.00 0.00 0.00 95 1009.1
20260831090008 23 0 0.0 0.0 0.00 0.00 0.00 95 1009.1
20260831085503 23 0 0.0 0.0 0.00 0.00 0.00 95 1009.2
20260831085003 23 6 0.0 1.6 0.00 0.00 0.00 95 1008.9
20260831084508 23 6 0.0 1.6 0.00 0.00 0.00 95 1008.9
20260831083503 23 0 0.0 0.0 0.00 0.00 0.00 95 1008.7
20260831083008 23 0 0.0 0.0 0.00 0.00 0.00 95 1008.7
20260831082503 23 0 0.0 0.0 0.00 0.00 0.00 95 1008.6
20260831082003 23 0 0.0 0.0 0.00 0.00 0.00 95 1008.5
20260831081508 23 0 0.0 0.0 0.00 0.00 0.00 95 1008.4
20260831081003 23 0 0.0 0.0 0.00 0.00 0.00 94 1008.4
20260831080008 23 0 0.0 0.0 0.00 0.00 0.00 94 1008.6
20260831075503 23 0 0.0 0.0 0.00 0.00 0.00 94 1008.6
20260831075003 23 0 0.0 0.0 0.00 0.00 0.00 94 1008.6
20260831074508 23 0 0.0 0.0 0.00 0.00 0.00 94 1008.5
20260831073503 23 0 0.0 0.0 0.00 0.00 0.00 94 1008.4
20260831073008 23 0 0.0 0.0 0.00 0.00 0.00 94 1008.5
20260831072503 23 0 0.0 0.0 0.00 0.00 0.00 94 1008.7
20260831071508 24 0 0.0 0.0 0.00 0.00 0.00 93 1008.6
20260831071004 24 0 0.0 0.0 0.00 0.00 0.00 94 1008.6
20260831070503 24 0 0.0 0.0 0.00 0.00 0.00 93 1008.6
20260831070008 24 0 0.0 0.0 0.00 0.00 0.00 93 1008.7
20260831065504 24 0 0.0 0.0 0.00 0.00 0.00 93 1008.9
20260831064507 24 0 0.0 0.0 0.00 0.00 0.00 92 1008.7
20260831064003 24 0 0.0 0.0 0.00 0.00 0.00 92 1008.8
20260831063503 24 0 0.0 0.0 0.00 0.00 0.00 92 1008.7
20260831063007 24 0 0.0 0.0 0.00 0.00 0.00 92 1008.8
20260831062504 24 0 0.0 0.0 0.00 0.00 0.00 91 1008.9
20260831062003 25 0 0.0 0.0 0.00 0.00 0.00 91 1008.8
20260831061507 25 0 0.0 0.0 0.00 0.00 0.00 91 1008.8
20260831061004 25 0 0.0 0.0 0.00 0.00 0.00 91 1008.8
20260831060007 25 0 0.0 0.0 0.00 0.00 0.00 90 1008.6
20260831055503 25 0 0.0 0.0 0.00 0.00 0.00 90 1008.6
20260831055004 25 0 0.0 0.0 0.00 0.00 0.00 90 1008.5
20260831054507 25 0 0.0 0.0 0.00 0.00 0.00 90 1008.6
20260831054003 25 0 0.0 0.0 0.00 0.00 0.00 89 1008.5
20260831053504 25 0 0.0 0.0 0.00 0.00 0.00 89 1008.3
20260831053007 25 0 0.0 0.0 0.00 0.00 0.00 89 1008.3
20260831052504 25 0 0.0 0.0 0.00 0.00 0.00 89 1008.4
20260831052004 25 0 0.0 0.0 0.00 0.00 0.00 89 1008.4
20260831051507 26 0 0.0 0.0 0.00 0.00 0.00 88 1008.3
20260831051004 26 0 0.0 0.0 0.00 0.00 0.00 88 1008.3
20260831050504 26 6 0.0 3.2 0.00 0.00 0.00 88 1008.3
20260831050009 26 5 1.6 4.8 0.00 0.00 0.00 88 1008.2
20260831045503 26 338 1.6 4.8 0.00 0.00 0.00 88 1008.2
20260831044508 25 0 0.0 0.0 0.00 0.00 0.00 90 1008.2
20260831044003 25 0 0.0 0.0 0.00 0.00 0.00 90 1008.2
20260831043504 25 0 0.0 0.0 0.00 0.00 0.00 90 1008.1
20260831043008 25 0 0.0 0.0 0.00 0.00 0.00 89 1008.0
20260831042504 25 0 0.0 0.0 0.00 0.00 0.00 89 1008.0
20260831042003 26 0 0.0 0.0 0.00 0.00 0.00 88 1008.1
20260831041003 26 0 0.0 0.0 0.00 0.00 0.00 88 1008.2
20260831040504 26 0 0.0 0.0 0.00 0.00 0.00 88 1008.2
20260831040007 26 0 0.0 0.0 0.00 0.00 0.00 88 1008.3
20260831035504 26 0 0.0 0.0 0.00 0.00 0.00 88 1008.4
20260831035004 26 0 0.0 0.0 0.00 0.00 0.00 88 1008.5
20260831034507 26 0 0.0 0.0 0.00 0.00 0.00 88 1008.5
20260831034003 26 0 0.0 0.0 0.00 0.00 0.00 87 1008.5
20260831033504 26 0 0.0 0.0 0.00 0.00 0.00 87 1008.6
20260831032504 26 0 0.0 0.0 0.00 0.00 0.00 86 1008.6
20260831032003 26 0 0.0 0.0 0.00 0.00 0.00 86 1008.6
20260831031507 26 0 0.0 0.0 0.00 0.00 0.00 86 1008.6
20260831031004 26 0 0.0 0.0 0.00 0.00 0.00 87 1008.6
20260831030007 26 0 0.0 0.0 0.00 0.00 0.00 86 1008.7
20260831025004 26 0 0.0 0.0 0.00 0.00 0.00 85 1008.7
20260831024507 26 0 0.0 0.0 0.00 0.00 0.00 84 1008.6
20260831023503 27 0 0.0 0.0 0.00 0.00 0.00 84 1008.6
20260831023008 27 0 0.0 0.0 0.00 0.00 0.00 84 1008.6
20260831022503 27 0 0.0 0.0 0.00 0.00 0.00 84 1008.5
20260831021508 27 0 0.0 0.0 0.00 0.00 0.00 83 1008.6
20260831021003 27 0 0.0 0.0 0.00 0.00 0.00 83 1008.5
20260831020503 27 0 0.0 0.0 0.00 0.00 0.00 83 1008.4
20260831020008 27 0 0.0 0.0 0.00 0.00 0.00 82 1008.4
20260831015503 27 0 0.0 0.0 0.00 0.00 0.00 82 1008.3
20260831015003 27 0 0.0 0.0 0.00 0.00 0.00 82 1008.3
20260831014508 28 0 0.0 0.0 0.00 0.00 0.00 81 1008.2
20260831014003 28 0 0.0 0.0 0.00 0.00 0.00 80 1008.1
20260831013503 28 0 0.0 0.0 0.00 0.00 0.00 80 1008.1
20260831013007 28 0 0.0 0.0 0.00 0.00 0.00 79 1008.1
20260831012503 28 0 0.0 0.0 0.00 0.00 0.00 79 1008.0
20260831012004 28 0 0.0 0.0 0.00 0.00 0.00 78 1008.0
20260831011507 29 0 0.0 0.0 0.00 0.00 0.00 77 1008.0
20260831011003 29 0 0.0 0.0 0.00 0.00 0.00 76 1008.0
20260831010503 30 0 0.0 0.0 0.00 0.00 0.00 76 1008.0
20260831010008 30 0 0.0 0.0 0.00 0.00 0.00 75 1007.9
20260831005003 30 0 0.0 0.0 0.00 0.00 0.00 74 1007.9
20260831004508 31 0 0.0 0.0 0.00 0.00 0.00 73 1007.9
20260831004003 31 0 0.0 0.0 0.00 0.00 0.00 72 1007.9
20260831003503 31 0 0.0 0.0 0.00 0.00 0.00 72 1007.9
20260831003008 31 0 0.0 0.0 0.00 0.00 0.00 71 1007.9
20260831002503 31 0 0.0 0.0 0.00 0.00 0.00 69 1008.0
20260831002003 31 0 0.0 0.0 0.00 0.00 0.00 69 1008.0
20260831001508 32 0 0.0 0.0 0.00 0.00 0.00 68 1008.0
20260831000503 32 0 0.0 0.0 0.00 0.00 0.00 69 1008.0